Location: Unspecified
(0.0000°N, 0.0000°E)
Time: 18:05:19
(UTC+00:00)

Courier 1B Rocket - Pass Details

Date: 06 October 2020
Orbit: 921 x 1202 km, 28.2° (Epoch: 27 October)

Event Time Altitude Azimuth Distance (km) Brightness Sun altitude
Rises 13:12:31 0° 273° (W) 3,603 8.3 68.2°
Reaches altitude 10° 13:15:32 10° 261° (W) 2,692 7.8 67.5°
Maximum altitude 13:20:51 26° 206° (SSW) 1,850 7.2 66.2°
Drops below altitude 10° 13:26:28 10° 151° (SSE) 2,852 7.5 64.8°
Sets 13:29:47 0° 139° (SE) 3,859 8.0 64.0°
